Retour au catalogue

OPS 4682 DEB

ActifPO
NORAD 38453·DEBRIS·🇺🇸 United States

Lancé Apr 3, 1965 depuis Vandenberg Space Force Base

Loading…

Prochains Passages (prochaines 24 heures)

TLE

VieillissantSource: Space-Track

Époque: Sep 11, 2026, 02:45 UTC

1 38453U 65027FJ  26254.11476973 -.00000006  00000-0 -47303-4 0  9999
2 38453  90.2491   8.4993 0024163   1.4702 358.6485 12.94958759586112

Suivez OPS 4682 DEB en temps réel avec AllMySat

Download on the App Store